Regional Weather Roundup
Issued by NWS

Home | Current Version | Previous Version | Text Only | Print | Product List | Glossary On
Versions: 1 2 3 4 5 6 7 8 9 10 11 12 13 14 15 16 17 18 19 20 21 22 23 24 25 26 27 28 29 30 31 32 33 34 35 36 37 38 39 40 41 42 43 44 45 46 47 48 49 50
000
ASUS42 KFFC 121303
RWRGA
WEATHER ROUNDUP FOR GEORGIA
NATIONAL WEATHER SERVICE PEACHTREE CITY GA
900 AM EDT SAT JUL 12 2014

NOTE: "FAIR" INDICATES FEW OR NO CLOUDS BELOW 12,000 FEET WITH NO
SIGNIFICANT WEATHER AND/OR OBSTRUCTIONS TO VISIBILITY.

* = USE WITH CAUTION. THE STATIONS MARKED WITH AN ASTERISK MAY NOT
REPORT WEATHER SUCH AS PRECIPITATION, FOG, OR THUNDER AND ARE NOT
QUALITY CONTROLLED BY NWS.

THE REMARK "TC" DENOTES TEMPERATURE READING IN DEGREES CELSIUS.

GAZ001>058-121400-
NORTH GEORGIA

CITY           SKY/WX    TMP DP  RH WIND       PRES   REMARKS
ATLANTA        CLOUDY    73  70  90 E9        30.22R FOG
ATHENS         MOSUNNY   76  71  85 E5        30.22R HAZE
CHAMBLEE       PTSUNNY   72  69  90 CALM      30.23R FOG
PEACHTREE CITY CLOUDY    72  71  97 VRB5      30.22R FOG
ROME           SUNNY     76  70  82 CALM      30.20R
WEST ATLANTA   CLOUDY    74  70  87 NE5       30.21R
GAINESVILLE    PTSUNNY   74  70  87 NE6       30.26R
CARTERSVILLE   MOSUNNY   75  69  81 VRB3      30.21S


CITY           SKY/WX    TMP DP  RH WIND       PRES   REMARKS
DALTON*        SUNNY     73  70  88 CALM      30.21R
LAWRENCEVILLE* PTSUNNY   73  66  78 E6        30.23R FOG
KENNESAW*      CLOUDY    72  70  94 E3        30.24R FOG
$$

GAZ059>098-102>109-121400-
CENTRAL GEORGIA

CITY           SKY/WX    TMP DP  RH WIND       PRES   REMARKS
AUGUSTA-BUSH   SUNNY     78  72  81 VRB3      30.19R
AUGUSTA-DANIEL SUNNY     80  72  76 VRB3      30.21R
COLUMBUS       MOSUNNY   74  70  87 SE3       30.18R
MACON          CLOUDY    73  73 100 E3        30.19R FOG


CITY           SKY/WX    TMP DP  RH WIND       PRES   REMARKS
LAGRANGE*      SUNNY     78  74  86 E3        30.20R
SYLVANIA*      FOG       75  75 100 S3        30.21R VSB 1/2
MILLEDGEVILLE* SUNNY     73  73 100 CALM      30.20R
$$

GAZ099>101-110>166-121400-
SOUTH GEORGIA

CITY           SKY/WX    TMP DP  RH WIND       PRES   REMARKS
SAVANNAH       LGT RAIN  74  71  91 NE5       30.20R
VALDOSTA       PTSUNNY   76  71  85 CALM      30.18R
ALMA           CLOUDY    75  72  90 CALM      30.18R FOG
ST SIMONS      CLOUDY    76  73  91 NW5       30.18R
FT STEWART     LGT RAIN  73  72  94 NE3       30.18R
ALBANY         SUNNY     79  72  79 SE5       30.19R
MOODY AFB      LGT RAIN  73  72  94 SE3       30.18R
BRUNSWICK      CLOUDY    77  73  88 CALM      30.18R


CITY           SKY/WX    TMP DP  RH WIND       PRES   REMARKS
BAINBRIDGE*    MOSUNNY   81  73  78 SE6       30.17R
MOULTRIE*      PTSUNNY   73  73 100 SE5       30.19R FOG
VIDALIA*         N/A     77  73  88 NE7       30.19R
WAYCROSS*      MOSUNNY   79  76  90 E3        30.18R
DOUGLAS*       CLOUDY    77  72  83 E5        30.20R
$$


USA.gov is the U.S. government's official web portal to all federal, state and local government web resources and services.